Location: Northcutt
(34.7304°N, 84.4305°W)
Time: 04:27:42
(UTC+00:00)

Vanguard 2 - Pass Details

Date: 04 October 2022
Orbit: 553 x 2933 km, 32.9° (Epoch: 05 December)

Event Time Altitude Azimuth Distance (km) Brightness Sun altitude
Rises 01:26:23 0° 283° (WNW) 6,636 13.6 -26.9°
Reaches altitude 10° 01:31:32 10° 274° (W) 5,732 12.9 -27.9°
Maximum altitude 01:45:31 30° 222° (SW) 4,171 11.3 -30.6°
Enters shadow 01:57:25 11° 170° (S) 4,923 11.3 -32.9°
Drops below altitude 10° 01:57:49 10° 168° (SSE) 4,981 - -33.0°
Sets 02:01:58 0° 158° (SSE) 5,673 - -33.8°
